Location: Montichiari
(45.4167°N, 10.3833°E)
Time: 21:39:24
(UTC+00:00)

Daily predictions for brighter satellites

Satellite Brightness Start Highest point End
(mag) Time Altitude Azimuth Time Altitude Azimuth Time Altitude Azimuth
Cosmos 1825 3.5 18:41:53 10° NNE 18:44:57 23° ENE 18:48:00 10° SE
Cosmos 1151 Rocket 4.0 18:41:19 10° SSW 18:45:33 53° WNW 18:49:48 10° N
Cosmos 2227 4.4 18:40:42 10° NNW 18:46:26 65° ENE 18:52:07 10° SE
Cosmos 1331 Rocket 4.0 18:43:14 10° SSW 18:48:32 84° ESE 18:53:53 10° NNE
Cosmos 2360 4.4 18:43:58 10° S 18:49:29 52° ESE 18:55:02 10° NE
Cosmos 1939 Rocket 3.7 18:47:10 10° SE 18:50:52 34° ENE 18:54:30 10° N
CENTAUR R/B 2.7 18:44:47 10° SW 18:50:55 82° NW 18:57:56 10° NE
Resurs 01 Rocket 2.5 18:56:11 10° S 19:00:32 53° W 19:04:56 10° NNW
Cosmos 2026 Rocket 4.2 18:58:06 10° N 19:04:14 53° ENE 19:10:14 10° SSE
Cosmos 1486 Rocket 4.1 19:00:32 10° NNW 19:05:48 86° WSW 19:11:03 10° SSE
Helios 1A 3.0 19:02:01 10° SSE 19:06:14 80° ENE 19:10:31 10° NNW
ERS-1 Rocket 3.8 19:02:15 10° SE 19:06:45 34° ENE 19:11:15 10° N
CZ-4B DEB 2.7 19:06:33 10° SSE 19:09:34 60° ENE 19:12:35 10° N
Cosmos 1697 Rocket 3.8 19:12:58 10° SW 19:18:27 49° WNW 19:23:56 10° NNE
SAR-Lupe-4 3.8 19:16:31 10° S 19:20:05 71° WSW 19:23:42 10° NNW
Cosmos 1092 Rocket 4.4 19:17:17 10° NNW 19:23:35 69° W 19:29:52 10° S
Cosmos 1634 Rocket 4.0 19:17:44 10° S 19:24:02 83° E 19:30:24 10° N
Cosmos 1655 Rocket 4.1 19:18:10 10° N 19:24:33 62° E 19:30:50 10° SSE
SeaSat 1 3.3 19:21:02 15° ESE 19:24:35 35° NE 19:29:03 10° NNW
USA 267 4.1 19:20:23 10° NE 19:26:42 52° NNW 19:32:59 10° W
Cosmos 1408 2.5 19:25:13 10° N 19:28:57 77° E 19:32:08 13° SSE
Cosmos 220 Rocket 4.0 19:27:21 10° NNW 19:31:51 89° WSW 19:35:34 15° SSE
Cosmos 1455 3.6 19:29:54 10° SSW 19:33:29 40° WNW 19:37:05 10° N
Cosmos 2263 Rocket 2.4 19:28:15 10° NNW 19:33:43 54° ENE 19:37:30 20° SE
Cosmos 1869 3.5 19:31:04 10° SSW 19:35:00 75° W 19:38:58 10° N
BREEZE-M DEB (TANK) 4.3 19:31:48 10° W 19:36:41 90° NE 19:58:17 10° ESE
Cosmos 1503 Rocket 4.0 19:31:34 10° NNW 19:36:53 88° WSW 19:41:17 15° SSE
ERBS 2.7 19:34:05 10° WNW 19:37:29 56° SW 19:39:22 23° SSE
Cosmos 2322 Rocket 2.2 19:33:10 10° S 19:38:38 58° ESE 19:44:10 10° NNE
Cosmos 1354 Rocket 4.1 19:34:44 10° NNW 19:40:03 83° WSW 19:44:27 15° SSE
H-2A R/B 4.1 19:38:45 12° ENE 19:40:05 13° ENE 19:42:04 10° NNE
Cosmos 1908 Rocket 4.4 19:36:40 10° N 19:40:36 32° ENE 19:42:19 24° ESE
H-2A R/B 3.3 19:41:33 18° E 19:43:44 25° ENE 19:47:42 10° N
Cosmos 2360 Rocket 3.0 19:47:51 22° SE 19:50:05 29° ESE 19:54:54 10° NE
Meteor 2-10 Rocket 4.1 19:46:33 17° SSE 19:50:38 44° E 19:56:06 10° NNE
Cosmos 1980 Rocket 3.4 19:45:25 10° SW 19:50:52 46° WNW 19:56:22 10° NNE
Cosmos 2266 Rocket 4.4 19:45:57 10° N 19:51:55 44° ENE 19:55:20 24° SE
CZ-4C R/B 4.5 19:47:02 10° NNW 19:52:02 22° NNE 19:57:31 10° ENE
Terra 3.6 19:51:22 15° E 19:52:50 17° ENE 19:55:50 10° NNE
Cosmos 1933 3.3 19:51:30 18° S 19:54:23 66° E 19:58:24 10° NNE
NOAA 11 4.2 19:55:36 23° SSE 19:59:05 70° ENE 20:04:34 10° N
Cosmos 1733 Rocket 3.4 19:58:17 10° NNW 20:02:43 66° W 20:05:57 18° S
USA 234 4.1 19:57:57 16° SSE 20:02:48 42° SW 20:08:58 10° WNW
Cosmos 968 Rocket 3.8 19:59:01 10° NNW 20:04:06 52° ENE 20:06:16 32° ESE
YAOGAN 6 3.2 20:02:26 21° S 20:04:40 55° W 20:08:15 10° NNW
SL-16 R/B 2.2 19:59:43 10° SSW 20:05:24 89° WNW 20:11:07 10° NNE
Cosmos 2279 Rocket 4.1 20:00:34 10° S 20:06:49 79° W 20:13:05 10° N
SL-08 RB Rocket 4.1 20:05:21 33° ESE 20:06:55 47° ENE 20:11:19 10° N
MOS 1-B Rocket 4.0 20:04:10 27° SE 20:07:24 59° ENE 20:12:56 10° N
Helios 1B rocket 4.3 20:04:05 10° N 20:07:45 32° WNW 20:11:23 10° SW
Envisat 4.4 20:03:37 10° SSW 20:08:15 35° W 20:12:55 10° NNW
Milstar 3 4.2 20:04:06 10° SW 20:08:39 18° SSW 20:10:13 16° S
Cosmos 1862 Rocket 3.7 20:05:44 11° SSW 20:10:01 77° W 20:14:32 10° N
Lacrosse 4 Rocket 2.3 20:07:57 10° NW 20:12:05 45° WSW 20:14:12 25° S
Abrixas rocket 2.3 20:10:11 10° WSW 20:13:29 72° NNW 20:14:25 42° NE
Cosmos 489 Rocket 4.5 20:08:55 10° NNW 20:15:18 77° ENE 20:18:31 31° SSE
ATLAS 5 CENTAUR R/B 2.4 20:10:47 10° NW 20:16:43 73° NE 20:19:40 33° SE
Cosmos 1862 4.4 20:14:48 10° NNW 20:18:37 42° W 20:21:09 19° SSW
SPOT 5 2.8 20:17:53 36° SSE 20:19:56 83° ENE 20:24:40 10° NNW
Meteor 1-26 Rocket 4.2 20:17:10 26° S 20:20:23 66° E 20:26:08 10° NNE
Cosmos 1825 4.2 20:17:18 10° NNW 20:20:30 26° W 20:23:38 10° SSW
MetOp-B 4.2 20:17:48 28° S 20:20:45 80° WSW 20:26:09 10° NNW
YAOGAN 11 4.1 20:19:54 35° S 20:21:43 76° WSW 20:26:05 10° NNW
Cosmos 2278 Rocket 4.1 20:20:36 10° N 20:24:23 18° NE 20:26:56 14° ENE
GENESIS II 4.1 20:21:37 10° SSW 20:25:40 86° ESE 20:29:45 10° NE
Atlas Centaur 2 4.1 20:21:17 10° SSW 20:26:13 22° S 20:26:13 22° S
Okean 1-7 3.5 20:27:56 43° E 20:27:56 43° E 20:32:02 10° NNE
ARGOS 3.1 20:25:48 35° SSE 20:28:11 89° WSW 20:33:36 10° NNW
Cosmos 1703 Rocket 3.5 20:28:52 53° SSE 20:29:45 68° E 20:34:10 10° NNE
Cosmos 2221 Rocket 3.7 20:30:18 51° ESE 20:30:28 51° E 20:34:47 10° NNE
SPOT 1/Viking Rocket 3.5 20:28:56 42° SSE 20:30:42 75° ENE 20:35:56 10° N
Cosmos 1782 4.3 20:36:46 25° ENE 20:36:46 25° ENE 20:39:04 10° NNE
Cosmos 1844 Rocket 3.4 20:32:23 10° NNW 20:37:38 41° NE 20:39:04 34° E
ERS-1 Rocket 4.4 20:42:12 16° SSW 20:45:30 32° W 20:50:01 10° NNW
USA 229 DEB 3.8 20:43:13 34° S 20:45:57 52° ESE 20:52:39 10° NE
USA 229 3.8 20:43:27 35° S 20:46:03 52° ESE 20:52:44 10° NE
CARTOSAT-1 4.0 20:47:11 46° ENE 20:47:11 46° ENE 20:51:17 10° N
Meteor 1-14 Rocket 4.3 20:44:12 10° NNW 20:49:49 73° W 20:51:52 41° S
Cosmos 1633 4.3 20:53:20 10° NNE 20:55:20 24° NE 20:55:20 24° NE
Cosmos 2219 Rocket 3.7 20:58:40 22° ENE 20:58:40 22° ENE 21:01:20 10° NE
Cosmos 1777 Rocket 3.8 20:56:03 10° NNW 21:01:22 81° ENE 21:02:00 69° SE
SeaSat 1 3.4 21:00:49 32° SW 21:02:03 38° WSW 21:06:39 10° NW
Cosmos 2237 4.1 21:07:47 65° SSE 21:08:27 72° ESE 21:14:11 10° NNE
Meteor 1-25 Rocket 4.3 21:04:38 10° NNW 21:10:13 67° W 21:11:26 52° SSW
DMSP B5D2-2 3.9 21:09:06 10° NNE 21:14:24 83° ESE 21:14:48 76° SSE
Landsat 7 3.9 21:14:38 63° WSW 21:14:55 65° WSW 21:19:41 10° NNW
H-2A R/B 2.2 21:15:52 68° WNW 21:15:52 68° WNW 21:19:49 10° NNW
COSMOS 2428 2.6 21:17:14 65° E 21:17:14 65° E 21:22:42 10° NNE
Cosmos 2263 Rocket 3.8 21:12:52 10° NW 21:17:15 24° WSW 21:19:14 20° SW
Cosmos 1867 4.1 21:15:01 10° NW 21:20:14 47° WSW 21:20:39 46° SW
H-2A R/B 2.6 21:22:11 42° SW 21:22:54 46° W 21:27:41 10° NNW
Cosmos 2322 Rocket 4.3 21:18:26 10° WSW 21:23:05 26° NW 21:27:46 10° N
Cosmos 1745 Rocket 4.1 21:19:12 10° N 21:25:26 58° ENE 21:26:00 56° E
Cosmos 1417 Rocket 4.4 21:25:13 67° SE 21:25:58 75° E 21:32:18 10° NNE
Iridium 4 Rocket 4.2 21:22:21 10° N 21:25:04 34° NNE 21:25:04 34° NNE
Spot 4 4.0 21:28:53 63° NE 21:28:53 63° NE 21:33:09 10° N
Terra 2.0 21:30:15 65° W 21:30:15 65° W 21:34:49 10° NNW
Okean 2 Rocket 4.1 21:27:47 10° NNW 21:32:01 40° W 21:32:04 40° W
Cosmos 2360 Rocket 3.1 21:29:27 15° SW 21:33:51 47° WNW 21:39:20 10° NNE
Cosmos 1844 3.5 21:30:23 10° NNW 21:36:06 85° ENE 21:36:10 84° E
CZ-4 R/B 4.1 21:31:38 10° NNE 21:35:37 62° NNE 21:35:37 62° NNE
Cosmos 2322 4.5 21:35:16 22° SW 21:38:42 50° WNW 21:44:16 10° NNE
CZ-4C R/B 3.2 21:35:15 10° NNW 21:42:06 56° NE 21:44:14 43° E
SL-16 R/B 4.4 21:45:55 12° ENE 21:45:55 12° ENE 21:46:38 10° ENE
Meteor 2-6 Rocket 4.3 21:42:55 68° SW 21:43:35 77° WNW 21:49:35 10° N
Meteor 2-11 Rocket 4.4 21:47:10 66° E 21:47:10 66° E 21:53:02 10° NNE
ASTEX 1 4.0 21:52:21 49° W 21:52:21 49° W 21:57:02 10° NNW
Cosmos 1570 Rocket 4.4 21:55:22 58° NNE 21:55:22 58° NNE 21:59:37 10° NNE
Cosmos 2333 Rocket 2.7 21:59:02 51° ENE 21:59:02 51° ENE 22:03:29 10° NNE
Cosmos 2208 Rocket 4.4 21:58:54 58° NNE 21:58:54 58° NNE 22:03:12 10° NNE
Cosmos 2333 4.4 22:00:00 65° W 22:00:24 68° WNW 22:06:11 10° NNE
CZ-2C R/B 4.3 22:01:22 30° NE 22:01:22 30° NE 22:04:52 10° N
ATLAS 5 CENTAUR R/B 3.9 21:56:15 10° WNW 22:01:05 25° WSW 22:01:14 25° WSW
CZ-4B R/B 3.9 21:58:03 10° N 22:02:02 56° NNW 22:02:02 56° NNW
Cosmos 2237 Rocket 3.0 22:09:28 42° ENE 22:09:28 42° ENE 22:13:25 10° NNE
Cosmos 2278 Rocket 2.3 22:03:38 10° NNW 22:08:46 73° NNW 22:08:46 73° NNW
Cosmos 1553 Rocket 4.1 22:09:29 61° WSW 22:10:06 65° W 22:16:20 10° N
Meteor 1-27 Rocket 3.9 22:12:18 66° WNW 22:12:18 66° WNW 22:17:46 10° N
Meteor 1-5 Rocket 4.4 22:12:07 10° N 22:17:05 71° N 22:17:05 71° N
Cosmos 1937 Rocket 4.1 22:14:33 10° NNW 22:18:51 52° NNE 22:18:51 52° NNE
Cosmos 1844 Rocket 3.9 22:16:28 10° NW 22:20:44 32° W 22:20:44 32° W
NOSS 0 Rocket 3.9 22:33:14 76° N 22:33:14 76° N 22:38:58 10° NNE
CZ-2C R/B 3.5 22:27:26 10° NNE 22:31:21 42° NE 22:31:21 42° NE
NOSS 3-1 (C) 3.5 22:34:19 76° NNW 22:34:19 76° NNW 22:40:47 10° NE
Cosmos 1898 Rocket 4.2 22:31:12 10° NNW 22:35:00 48° NW 22:35:00 48° NW
Cosmos 2219 Rocket 2.8 22:40:20 50° WNW 22:40:23 50° WNW 22:45:52 10° NNE
Cosmos 1709 Rocket 4.1 22:39:43 10° NNW 22:45:46 73° WNW 22:45:46 73° WNW
ALOS 2 4.2 22:49:25 33° NNW 22:49:25 33° NNW 22:51:54 10° NNW
NOSS 3-1 (A) 3.5 22:48:24 73° N 22:48:24 73° N 22:54:31 10° NE
ATLAS 2AS CENTAUR R/B 3.9 22:50:52 34° E 22:50:52 34° E 22:56:48 10° NE
Cosmos 2297 4.2 22:53:27 10° NNW 22:57:59 57° NW 22:57:59 57° NW
Cosmos 2369 Rocket 3.9 23:03:47 10° N 23:08:21 25° NE 23:09:54 22° ENE
Cosmos 2285 Rocket 4.1 23:11:12 76° N 23:11:12 76° N 23:17:07 10° NNE
Cosmos 2074 Rocket 4.1 23:06:37 10° N 23:12:16 71° NNE 23:12:16 71° NNE
SL-16 R/B 2.6 23:27:46 60° N 23:27:46 60° N 23:32:26 10° NNE
ATLAS 3B R/B 3.0 23:21:48 10° NNW 23:28:37 60° NE 23:29:36 54° E
CZ-4C R/B 3.6 23:23:59 10° NW 23:29:24 39° W 23:29:24 39° W
ATLAS CENTAUR R/B 3.7 23:35:33 21° NE 23:35:33 21° NE 23:36:55 10° NE
Cosmos 1943 Rocket 4.2 23:31:42 10° N 23:36:09 23° NE 23:39:13 15° E
USA 238 DEB 4.3 23:33:05 10° NNW 23:40:02 56° NE 23:42:35 38° E
USA 238 4.3 23:33:11 10° NNW 23:40:08 55° NE 23:42:45 37° E
Cosmos 841 Rocket 4.3 23:41:58 48° N 23:41:58 48° N 23:45:50 10° NNE
Cosmos 2333 Rocket 3.9 23:40:59 22° WNW 23:42:31 25° NW 23:47:14 10° N
Cosmos 1607 4.0 23:37:25 10° NNW 23:43:39 75° NE 23:43:39 75° NE
Cosmos 540 Rocket 4.4 23:47:20 43° NE 23:47:20 43° NE 23:50:53 10° NNE
Cosmos 2237 Rocket 3.7 23:51:16 25° WNW 23:52:15 27° NW 23:57:03 10° N
Cosmos 2278 Rocket 4.5 23:49:39 10° WNW 23:50:37 12° WNW 23:50:37 12° WNW
Meteor 1-13 Rocket 4.5 23:53:27 69° N 23:53:27 69° N 23:58:39 10° N
